Regional Weather Roundup
Issued by NWS

Home | Current Version | Previous Version | Graphics & Text | Print | Product List | Glossary On
Versions: 1 2 3 4 5 6 7 8 9 10 11 12 13 14 15 16 17 18 19 20 21 22 23 24 25 26 27 28 29 30 31 32 33 34 35 36 37 38 39 40 41 42 43 44 45 46 47 48 49 50
000
ASUS45 KBOU 191807
RWRCO

WEATHER ROUNDUP FOR COLORADO
NATIONAL WEATHER SERVICE DENVER/BOULDER CO
1200 PM MDT SUN OCT 19 2014

NOTE: "FAIR" INDICATES FEW OR NO CLOUDS BELOW 12000 FEET WITH NO
SIGNIFICANT WEATHER AND/OR OBSTRUCTIONS TO VISIBILITY.

COZ001>005-013-030-031-191900-
...NORTHWEST COLORADO...

CITY           SKY/WX    TMP DP  RH WIND       PRES   REMARKS
CRAIG          SUNNY     64  32  30 NE3       30.21F
HAYDEN         SUNNY     63  30  29 E3        30.22S
MEEKER         MOSUNNY   64  32  30 CALM      30.20F
MOUNT WERNER   NOT AVBL
STEAMBOAT SPGS SUNNY     58  32  37 CALM      30.23F
WALDEN         SUNNY     54  28  37 CALM      30.29F
$$

COZ006>008-011-191900-
...WEST CENTRAL VALLEYS...

CITY           SKY/WX    TMP DP  RH WIND       PRES   REMARKS
GRAND JUNCTION MOSUNNY   68  43  40 SE7       30.13F
MONTROSE       SUNNY     66  40  38 N7        30.19S
EAGLE          MOSUNNY   55  34  44 CALM      30.26F
RIFLE          MOSUNNY   64  36  35 CALM      30.17F
DELTA          SUNNY     68  37  31 CALM      30.16F
NUCLA          SUNNY     63  36  36 CALM      30.22S
$$

COZ017>023-064>068-191900-
...SOUTHWEST COLORADO...

CITY           SKY/WX    TMP DP  RH WIND       PRES   REMARKS
DURANGO        SUNNY     61  42  49 E5        30.23F
CORTEZ         SUNNY     69  43  38 MISG      30.18F
PAGOSA SPRINGS SUNNY     60  38  43 CALM      30.27F
TELLURIDE      SUNNY     59  31  34 W8        30.33S
WOLF CREEK PAS PTSUNNY   39  32  75 SW8       30.47S THUNDER
$$

COZ009-010-012-014-032>034-037-058>063-191900-
...CENTRAL COLORADO...

CITY           SKY/WX    TMP DP  RH WIND       PRES   REMARKS
ASPEN          CLOUDY    55  34  44 NW5       30.26F
BUENA VISTA    PTSUNNY   61  31  32 CALM      30.28S
COPPER MTN     MOSUNNY   50  27  40 SE10      30.47F
BERTHOUD PASS  CLOUDY    37  34  87 MISG      30.52S
COTTONWOOD PAS CLOUDY    54  30  40 CALM      30.38R
GUNNISON       MOSUNNY   55  32  41 NW5       30.30F
KREMMLING      SUNNY     54  28  37 CALM        N/A
LEADVILLE      CLOUDY    51  27  39 CALM      30.36S
MONARCH PASS   CLOUDY    41  30  65 SW14G20   30.58S
SALIDA         PTSUNNY   62  35  35 N5        30.33F
SUNLIGHT       MOSUNNY   50  32  50 CALM      30.44S
WILKERSON PASS NOT AVBL
$$

COZ069>075-191900-
...SAN LUIS VALLEY/SANGRE DE CRISTO MOUNTAINS...

CITY           SKY/WX    TMP DP  RH WIND       PRES   REMARKS
ALAMOSA        SUNNY     60  37  42 VRB5      30.27F
LA VETA PASS   MOSUNNY   54  36  50 SW3       30.39F
SAGUACHE       MOSUNNY   55  37  50 S5        30.29F
$$

COZ035-036-038>040-191900-
...NORTHERN COLORADO FRONT RANGE...

CITY           SKY/WX    TMP DP  RH WIND       PRES   REMARKS
DENVER INTL AP MOSUNNY   70  31  23 VRB6      30.15S
DMNS CITY PARK   N/A     73  31  21 N3        30.14S
AURORA         MOSUNNY   69  31  24 NW3       30.17R
FRONT RANGE AP NOT AVBL
ERIE MUNI ARPT SUNNY     72  29  20 SE3       30.13S
BOULDER MUN AP SUNNY     73  32  21 E6        30.13S
CENTENNIAL     MOSUNNY   68  30  24 VRB5      30.17S
BROOMFIELD     MOSUNNY   72  32  23 E6        30.16R
FORT COLLINS   SUNNY     70  37  30 SE8       30.13F
LONGMONT       SUNNY     75  35  22 E7        30.13S
$$

COZ041-046-047-076>085-087-088-191900-
...PIKES PEAK/PALMER DIVIDE AND SOUTHERN FOOTHILLS...

CITY           SKY/WX    TMP DP  RH WIND       PRES   REMARKS
COLO. SPRINGS  MOSUNNY   71  28  20 CALM      30.18F
A. F. ACADEMY  MOSUNNY   67  28  22 NE7       30.19F
ELLICOTT       NOT AVBL
FALCON         SUNNY     68  28  22 N8G16     30.22S
FORT CARSON    SUNNY     72  31  22 VRB3      30.15S
LIMON          MOSUNNY   70  32  24 N15G23    30.13S
MONUMENT HILL  MOSUNNY   63  30  29 N7        30.23S
TRINIDAD       SUNNY     73  33  23 N15       30.14S
$$

COZ042>045-048>051-090-091-191900-
...NORTHEAST COLORADO...

CITY           SKY/WX    TMP DP  RH WIND       PRES   REMARKS
GREELEY ARPT   SUNNY     70  39  32 S5        30.12F
AKRON          SUNNY     65  39  38 VRB3      30.10R
BURLINGTON     SUNNY     71  43  36 N8        30.06S
WRAY           SUNNY     73  41  31 N6        30.05S
STERLING       SUNNY     72  45  37 NE8       30.07F
HOLYOKE        SUNNY     73  43  33 N7        30.05F HAZE
FORT MORGAN    SUNNY     71  33  25 NE8       30.11S
$$

COZ086-089-092>099-191900-
...SOUTHEAST COLORADO...

CITY           SKY/WX    TMP DP  RH WIND       PRES   REMARKS
PUEBLO         MOSUNNY   72  39  30 W6        30.10F
LA JUNTA       MOSUNNY   72  41  32 VRB5      30.07S
LAMAR          SUNNY     67  46  47 W7        30.03F
SPRINGFIELD      N/A     73  44  35 N8        30.06S
$$



USA.gov is the U.S. government's official web portal to all federal, state and local government web resources and services.